Regional Weather Roundup
Issued by NWS Jackson, KY

Home | Current Version | Previous Version | Text Only | Print | Product List | Glossary On
Versions: 1 2 3 4 5 6 7 8 9 10 11 12 13 14 15 16 17 18 19 20 21 22 23 24 25 26 27 28 29 30 31 32 33 34 35 36 37 38 39 40 41 42 43 44 45 46 47 48 49 50
000
ASUS43 KJKL 010910
RWRJKL

EAST KENTUCKY HOURLY WEATHER ROUNDUP
NATIONAL WEATHER SERVICE JACKSON KY
500 AM EDT TUE SEP 01 2015

NOTE: "FAIR" INDICATES FEW OR NO CLOUDS BELOW 12,000 FEET WITH
NO SIGNIFICANT WEATHER AND/OR OBSTRUCTIONS TO VISIBILITY.

* THESE REPORTS ARE NOT UNDER NWS QUALITY CONTROL AND MAY NOT
  REPORT WEATHER SUCH AS PRECIPITATION AND FOG.

KYZ079-080-083-085-087-088-110-112-115-119-120-011000
...EASTERN KENTUCKY...

CITY           SKY/WX    TMP DP  RH WIND       PRES   REMARKS
JACKSON        CLEAR     69  65  86 CALM      30.15R
LONDON         CLEAR     65  61  87 CALM      30.14S
SOMERSET*      CLEAR     63  63 100 CALM      30.15R
MONTICELLO*    FOG       63  63 100 CALM      30.16S VSB<1/4
WILLIAMSBURG*  CLOUDY    63  63 100 CALM      30.14
MIDDLESBORO*   MOCLDY    63  63 100 CALM      30.16S
HARLAN APT*      N/A     64  64 100 MISG      30.17S
HAZARD APT*    SUNNY     66  66 100 CALM      30.15R FOG
BLACK MTN*       N/A    N/A N/A N/A CALM        N/A
PIKEVILLE APT* FOG       64  64 100 S3        30.14F VSB 1/2
BIG SANDY*     FOG       67  66  99 CALM      30.14S VSB 3/4
MOREHEAD APT*  SUNNY     66  64  94 S5        30.15S FOG
$$

KYZ035-036-041-042-044-050-067-078-099-011000
...CENTRAL KENTUCKY...

CITY           SKY/WX    TMP DP  RH WIND       PRES   REMARKS
MT STERLING*   CLEAR     63  63 100 CALM      30.15S FOG
FLEMING/MASON* CLEAR     66  64  94 S5        30.14S
DANVILLE*      CLEAR     63  61  94 CALM      30.15S
RICHMOND*      CLEAR     63  61  94 CALM      30.13S
LEXINGTON      CLEAR     67  63  87 CALM      30.14R
FRANKFORT      CLEAR     65  62  90 CALM      30.12R
$$

KYZ091>093-OHZ055-061-077-WVZ005-015-034-035-042-011000
...SOUTHERN OHIO/WEST VIRGINIA...

CITY           SKY/WX    TMP DP  RH WIND       PRES   REMARKS
COVINGTON      CLEAR     66  64  93 CALM      30.12R
COLUMBUS       CLEAR     69  67  93 CALM      30.10R
DAYTON         CLEAR     68  67  96 CALM      30.12S
WILMINGTON     CLEAR     65  63  93 CALM      30.12S FOG
HUNTINGTON     FOG       65  65 100 CALM      30.11S VSB 1/2
CHARLESTON     PTCLDY    65  63  93 CALM      30.12R FOG
PINEVILLE*     FOG       65  65 100 MISG      30.21S VSB 1/2
BECKLEY        CLEAR     62  59  90 CALM      30.19S
BLUEFIELD      CLEAR     65  60  84 W5        30.22R
$$

VAZ002-007-008-TNZ017-027-036-066-071-011000
...SOUTHWEST VIRGINIA/EAST TENNESSEE...

CITY           SKY/WX    TMP DP  RH WIND       PRES   REMARKS
WISE*          CLEAR     64  64 100 CALM      30.22S
JONESVILLE*    SUNNY     63  61  94 CALM      30.17S FOG
ABINGDON*      CLEAR     66  62  86 E3        30.18S
BRISTOL        PTCLDY    64  63  96 CALM      30.15S FOG
KNOXVILLE      PTCLDY    68  67  96 CALM      30.12R
OAK RIDGE      CLEAR     67  64  90 CALM      30.13S
CROSSVILLE     CLEAR     64  61  90 W3        30.17S FOG
NASHVILLE      CLEAR     69  65  86 CALM      30.12R
$$

...KEY TO REMARKS...
VSB - VISIBILITY IN MILES
WCI - WIND CHILL INDEX
HX  - HEAT INDEX

$$



USA.gov is the U.S. government's official web portal to all federal, state and local government web resources and services.